When you browse on this site, cookies collect data to enhance your experience and personalize the content and advertising you see.
Visit our Privacy Policy to learn more. By continuing to use the site, you agree to this use of cookies and data.
  • In Hungary
  • List of Countries
  • For 7 days
  • Water Temperature
  • Satellite Maps
  • Weather Map
  • News
  • Weather Widgets
  • user-avatar
    Login

    Hourly Weather Boma

    Today, 19 April, Friday

    Time Temperature Precipitation Wind Pressure Humidity
    00:00 +24°C° 0 mm 1 mps 699 mmHg 86%
    01:00 +24°C° 0 mm 1 mps 699 mmHg 89%
    02:00 +24°C° 0 mm 1 mps 699 mmHg 91%
    03:00 +24°C° 0 mm 1 mps 699 mmHg 93%
    04:00 +21°C° 0 mm 0 mps 699 mmHg 95%
    05:00 +24°C° 0 mm 1 mps 700 mmHg 93%
    06:00 +24°C° 0 mm 1 mps 700 mmHg 92%
    07:00 +24°C° 0 mm 1 mps 700 mmHg 90%
    08:00 +26°C° 0 mm 1 mps 701 mmHg 80%
    09:00 +28°C° 0 mm 1 mps 701 mmHg 70%
    10:00 +30°C° 0 mm 1 mps 702 mmHg 61%
    11:00 +31°C° 0 mm 1 mps 702 mmHg 55%
    12:00 +31°C° 0 mm 0 mps 701 mmHg 50%
    13:00 +32°C° 0 mm 0 mps 701 mmHg 45%
    14:00 +32°C° 0 mm 0 mps 700 mmHg 45%
    15:00 +33°C° 0 mm 1 mps 700 mmHg 45%
    16:00 +33°C° 0 mm 1 mps 700 mmHg 44%
    17:00 +31°C° 0 mm 1 mps 699 mmHg 55%
    18:00 +29°C° 0 mm 1 mps 699 mmHg 65%
    19:00 +27°C° 0 mm 1 mps 699 mmHg 75%
    20:00 +26°C° 0 mm 1 mps 699 mmHg 79%
    21:00 +25°C° 0 mm 1 mps 699 mmHg 83%
    22:00 +25°C° 0 mm 1 mps 699 mmHg 88%
    23:00 +22°C° 0 mm 0 mps 700 mmHg 89%

    Tomorrow, 20 April, Saturday

    Time Temperature Precipitation Wind Pressure Humidity
    00:00 +22°C° 0 mm 0 mps 700 mmHg 91%
    01:00 +21°C° 0 mm 0 mps 700 mmHg 92%
    02:00 +21°C° 0 mm 0 mps 700 mmHg 93%
    03:00 +21°C° 0 mm 0 mps 700 mmHg 93%
    04:00 +21°C° 0 mm 0 mps 700 mmHg 94%
    05:00 +21°C° 0 mm 0 mps 700 mmHg 92%
    06:00 +22°C° 0 mm 0 mps 700 mmHg 90%
    07:00 +22°C° 0 mm 0 mps 701 mmHg 88%
    08:00 +24°C° 0 mm 0 mps 701 mmHg 79%
    09:00 +26°C° 0 mm 0 mps 702 mmHg 69%
    10:00 +30°C° 0 mm 1 mps 703 mmHg 60%
    11:00 +31°C° 0 mm 1 mps 702 mmHg 55%
    12:00 +33°C° 0 mm 1 mps 702 mmHg 50%
    13:00 +32°C° 0 mm 0 mps 701 mmHg 45%
    14:00 +34°C° 0 mm 1 mps 701 mmHg 44%
    15:00 +34°C° 0 mm 1 mps 700 mmHg 43%
    16:00 +34°C° 0 mm 1 mps 699 mmHg 43%
    17:00 +32°C° 0 mm 1 mps 699 mmHg 51%
    18:00 +30°C° 0 mm 1 mps 699 mmHg 59%
    19:00 +27°C° 0 mm 1 mps 699 mmHg 68%
    20:00 +26°C° 0.1 mm 1 mps 699 mmHg 73%
    21:00 +25°C° 0.1 mm 1 mps 699 mmHg 79%
    22:00 +22°C° 0.1 mm 0 mps 700 mmHg 85%
    23:00 +22°C° 0 mm 0 mps 699 mmHg 85%

    Day after tomorrow, 21 April, Sunday

    Time Temperature Precipitation Wind Pressure Humidity
    00:00 +22°C° 0 mm 0 mps 699 mmHg 86%
    01:00 +22°C° 0 mm 0 mps 699 mmHg 87%
    02:00 +21°C° 0 mm 0 mps 699 mmHg 87%
    03:00 +21°C° 0 mm 0 mps 698 mmHg 87%
    04:00 +21°C° 0 mm 0 mps 698 mmHg 86%
    05:00 +21°C° 0 mm 0 mps 699 mmHg 86%
    06:00 +21°C° 0 mm 0 mps 699 mmHg 86%
    07:00 +22°C° 0 mm 0 mps 700 mmHg 86%
    08:00 +27°C° 0 mm 1 mps 700 mmHg 75%
    09:00 +29°C° 0 mm 1 mps 701 mmHg 63%
    10:00 +32°C° 0 mm 1 mps 702 mmHg 52%
    11:00 +34°C° 0 mm 1 mps 701 mmHg 46%
    12:00 +36°C° 0 mm 1 mps 700 mmHg 39%
    13:00 +39°C° 0 mm 1 mps 700 mmHg 33%
    14:00 +39°C° 0 mm 1 mps 699 mmHg 32%
    15:00 +37°C° 0 mm 1 mps 698 mmHg 32%
    16:00 +37°C° 0 mm 1 mps 698 mmHg 32%
    17:00 +34°C° 0 mm 1 mps 698 mmHg 41%
    18:00 +32°C° 0 mm 1 mps 698 mmHg 49%
    19:00 +29°C° 0 mm 1 mps 698 mmHg 58%
    20:00 +27°C° 1.8 mm 1 mps 698 mmHg 70%
    21:00 +25°C° 1.8 mm 1 mps 698 mmHg 83%
    22:00 +23°C° 1.8 mm 1 mps 699 mmHg 96%
    23:00 +23°C° 0.2 mm 1 mps 699 mmHg 95%

    22 April, Monday

    Time Temperature Precipitation Wind Pressure Humidity
    00:00 +21°C° 0.2 mm 0 mps 699 mmHg 94%
    01:00 +21°C° 0.2 mm 0 mps 699 mmHg 94%
    02:00 +21°C° 0 mm 0 mps 698 mmHg 93%
    03:00 +21°C° 0 mm 0 mps 698 mmHg 93%
    04:00 +21°C° 0 mm 0 mps 698 mmHg 93%
    05:00 +21°C° 0.2 mm 0 mps 698 mmHg 93%
    06:00 +21°C° 0.2 mm 0 mps 699 mmHg 94%
    07:00 +21°C° 0.2 mm 0 mps 699 mmHg 94%
    08:00 +24°C° 0 mm 0 mps 700 mmHg 80%
    09:00 +29°C° 0 mm 1 mps 700 mmHg 66%
    10:00 +32°C° 0 mm 1 mps 701 mmHg 51%
    11:00 +34°C° 0 mm 1 mps 700 mmHg 46%
    12:00 +36°C° 0 mm 1 mps 700 mmHg 40%
    13:00 +39°C° 0 mm 1 mps 699 mmHg 34%
    14:00 +37°C° 0 mm 1 mps 699 mmHg 36%
    15:00 +36°C° 0 mm 1 mps 698 mmHg 38%
    16:00 +35°C° 0 mm 1 mps 697 mmHg 40%
    17:00 +33°C° 0 mm 1 mps 697 mmHg 48%
    18:00 +31°C° 0 mm 1 mps 698 mmHg 56%
    19:00 +29°C° 0 mm 1 mps 698 mmHg 64%
    20:00 +27°C° 6 mm 1 mps 698 mmHg 74%
    21:00 +26°C° 6 mm 2 mps 698 mmHg 85%
    22:00 +25°C° 6 mm 2 mps 699 mmHg 95%
    23:00 +24°C° 2.9 mm 2 mps 699 mmHg 95%

    23 April, Tuesday

    Time Temperature Precipitation Wind Pressure Humidity
    00:00 +24°C° 2.9 mm 1 mps 698 mmHg 96%
    01:00 +24°C° 2.9 mm 1 mps 698 mmHg 96%
    02:00 +24°C° 0.1 mm 1 mps 698 mmHg 97%
    03:00 +22°C° 0.1 mm 0 mps 698 mmHg 97%
    04:00 +22°C° 0.1 mm 0 mps 698 mmHg 97%
    05:00 +22°C° 0 mm 0 mps 699 mmHg 97%
    06:00 +22°C° 0 mm 0 mps 699 mmHg 97%
    07:00 +22°C° 0 mm 0 mps 699 mmHg 96%
    08:00 +24°C° 0 mm 0 mps 700 mmHg 85%
    09:00 +28°C° 0 mm 1 mps 700 mmHg 73%
    10:00 +31°C° 0 mm 1 mps 701 mmHg 62%
    11:00 +32°C° 0 mm 1 mps 700 mmHg 55%
    12:00 +34°C° 0 mm 1 mps 699 mmHg 47%
    13:00 +36°C° 0 mm 1 mps 699 mmHg 40%
    14:00 +36°C° 0 mm 1 mps 698 mmHg 40%
    15:00 +36°C° 0 mm 1 mps 698 mmHg 40%
    16:00 +35°C° 0 mm 1 mps 697 mmHg 40%
    17:00 +33°C° 0 mm 1 mps 698 mmHg 48%
    18:00 +31°C° 0 mm 1 mps 698 mmHg 56%
    19:00 +26°C° 0 mm 0 mps 698 mmHg 64%
    20:00 +26°C° 0 mm 0 mps 698 mmHg 67%
    21:00 +25°C° 0 mm 0 mps 698 mmHg 70%
    22:00 +24°C° 0 mm 0 mps 699 mmHg 74%
    23:00 +23°C° 0.9 mm 0 mps 699 mmHg 81%

    24 April, Wednesday

    Time Temperature Precipitation Wind Pressure Humidity
    00:00 +23°C° 0.9 mm 0 mps 698 mmHg 88%
    01:00 +22°C° 0.9 mm 0 mps 698 mmHg 95%
    02:00 +22°C° 0.6 mm 0 mps 698 mmHg 96%
    03:00 +21°C° 0.6 mm 0 mps 698 mmHg 97%
    04:00 +21°C° 0.6 mm 0 mps 698 mmHg 98%
    05:00 +22°C° 0 mm 0 mps 699 mmHg 98%
    06:00 +22°C° 0 mm 0 mps 699 mmHg 97%
    07:00 +22°C° 0 mm 0 mps 699 mmHg 97%
    08:00 +25°C° 0 mm 0 mps 700 mmHg 84%
    09:00 +30°C° 0 mm 1 mps 700 mmHg 70%
    10:00 +33°C° 0 mm 1 mps 700 mmHg 57%
    11:00 +35°C° 0 mm 1 mps 700 mmHg 49%
    12:00 +37°C° 0 mm 1 mps 699 mmHg 42%
    13:00 +40°C° 0 mm 1 mps 699 mmHg 34%
    14:00 +39°C° 0 mm 1 mps 698 mmHg 35%
    15:00 +39°C° 0 mm 1 mps 698 mmHg 35%
    16:00 +38°C° 0 mm 2 mps 697 mmHg 36%
    17:00 +34°C° 0 mm 1 mps 697 mmHg 44%
    18:00 +30°C° 0 mm 0 mps 698 mmHg 52%
    19:00 +28°C° 0 mm 0 mps 698 mmHg 60%
    20:00 +27°C° 0 mm 0 mps 698 mmHg 62%
    21:00 +27°C° 0 mm 0 mps 699 mmHg 65%
    22:00 +29°C° 0 mm 1 mps 699 mmHg 67%
    23:00 +28°C° 0.7 mm 1 mps 699 mmHg 73%
    Show more